TimeCST,TemperatureF,Dew PointF,Humidity,Sea Level PressureIn,VisibilityMPH,Wind Direction,Wind SpeedMPH,Gust SpeedMPH,PrecipitationIn,Events,Conditions,WindDirDegrees,DateUTC
12:56 AM,28.0,19.0,69,30.09,10.0,Calm,Calm,-,N/A,,Clear,0,2012-02-01 06:56:00
1:56 AM,28.0,19.0,69,30.09,10.0,Calm,Calm,-,N/A,,Clear,0,2012-02-01 07:56:00
2:56 AM,27.0,19.0,72,30.10,10.0,Calm,Calm,-,N/A,,Clear,0,2012-02-01 08:56:00
3:56 AM,28.0,19.9,72,30.09,10.0,Calm,Calm,-,N/A,,Clear,0,2012-02-01 09:56:00
4:56 AM,26.1,19.0,75,30.11,10.0,Calm,Calm,-,N/A,,Clear,0,2012-02-01 10:56:00
5:56 AM,27.0,19.0,72,30.12,10.0,Calm,Calm,-,N/A,,Clear,0,2012-02-01 11:56:00
6:56 AM,27.0,19.0,72,30.13,10.0,WNW,3.5,-,N/A,,Clear,290,2012-02-01 12:56:00
7:56 AM,27.0,19.0,72,30.14,10.0,Calm,Calm,-,N/A,,Clear,0,2012-02-01 13:56:00
8:56 AM,30.9,23.0,72,30.15,10.0,West,4.6,-,N/A,,Clear,280,2012-02-01 14:56:00
9:56 AM,36.0,24.1,62,30.15,10.0,Calm,Calm,-,N/A,,Clear,0,2012-02-01 15:56:00
10:56 AM,42.1,24.1,49,30.15,10.0,West,4.6,-,N/A,,Clear,270,2012-02-01 16:56:00
11:56 AM,51.1,23.0,33,30.12,10.0,Calm,Calm,-,N/A,,Clear,0,2012-02-01 17:56:00
12:56 PM,53.1,23.0,31,30.10,10.0,Calm,Calm,-,N/A,,Clear,0,2012-02-01 18:56:00
1:56 PM,57.0,19.9,24,30.09,10.0,WNW,3.5,-,N/A,,Clear,300,2012-02-01 19:56:00
2:56 PM,55.9,18.0,23,30.08,10.0,Calm,Calm,-,N/A,,Clear,0,2012-02-01 20:56:00
3:56 PM,57.0,19.9,24,30.08,10.0,ENE,4.6,-,N/A,,Clear,60,2012-02-01 21:56:00
4:56 PM,53.1,21.9,30,30.09,10.0,North,9.2,-,N/A,,Clear,10,2012-02-01 22:56:00
5:56 PM,46.9,21.9,37,30.12,10.0,Calm,Calm,-,N/A,,Clear,0,2012-02-01 23:56:00
6:56 PM,39.9,21.9,49,30.15,10.0,SW,3.5,-,N/A,,Clear,230,2012-02-02 00:56:00
7:56 PM,30.0,19.9,66,30.17,10.0,Calm,Calm,-,N/A,,Clear,0,2012-02-02 01:56:00
8:56 PM,27.0,19.0,72,30.19,10.0,Calm,Calm,-,N/A,,Clear,0,2012-02-02 02:56:00
9:56 PM,23.0,18.0,81,30.20,10.0,Calm,Calm,-,N/A,,Clear,0,2012-02-02 03:56:00
10:56 PM,26.1,19.9,78,30.19,10.0,Calm,Calm,-,N/A,,Clear,0,2012-02-02 04:56:00
11:56 PM,21.0,17.1,85,30.19,10.0,Calm,Calm,-,N/A,,Clear,0,2012-02-02 05:56:00